Lumberton, NC

5:53 AM EST on February 27, 2017 (GMT -0500)
Lumberton Municipal

Weather History for KLBT - October, 2011

Change the Weather History Date:

Sunday, October 23, 2011

  Actual Average Record
Temperature  
Mean Temperature 57 °F 61 °F  
Max Temperature 72 °F 74 °F 87 °F (2007)
Min Temperature 41 °F 49 °F 37 °F (1998)
Degree Days  
Heating Degree Days 8 5  
Month to date heating degree days 81 69  
Since 1 July heating degree days 88 78  
Cooling Degree Days 0 2  
Month to date cooling degree days 36 63  
Year to date cooling degree days 2293 1884  
Growing Degree Days 6 (Base 50)    
Moisture  
Dew Point 45 °F    
Average Humidity 69    
Maximum Humidity 100    
Minimum Humidity 38    
Precipitation  
Precipitation 0.00 in 0.05 in 0.01 in (2004)
Month to date precipitation 2.36 2.11  
Year to date precipitation 36.87 37.30  
Sea Level Pressure  
Sea Level Pressure 30.10 in    
Wind  
Wind Speed 2 mph (NNE)    
Max Wind Speed 12 mph    
Max Gust Speed 14 mph    
Visibility 8 miles    
Events      
T = Trace of Precipitation, MM = Missing Value Source: NWS Daily Summary

Daily Weather History Graph

Daily Weather History Graph

Search for Another Location

Airport or City:

Trip Planner

Search our weather history database for the weather conditions in past years. The results will help you decide how hot, cold, wet, or windy it might be!

Date:

Astronomy

Oct. 23, 2011 Rise Set
Actual Time 7:28 AM EDT 6:32 PM EDT
Civil Twilight 7:02 AM EDT 6:57 PM EDT
Nautical Twilight 6:33 AM EDT 7:27 PM EDT
Astronomical Twilight 6:04 AM EDT 7:56 PM EDT
Moon 3:41 AM EDT (10/23) 4:15 PM EDT (10/23)
Length of Visible Light 11h 55m
Length of Day
11h 04m
Waning Crescent, 14% of the Moon is Illuminated
Oct 23
Waning Crescent
Oct 26
New
Nov 2
First Quarter
Nov 10
Full
Nov 18
Last Quarter

Hourly Weather History & Observations

Time (EDT) Temp. Dew Point Humidity Pressure Visibility Wind Dir Wind Speed Gust Speed Precip Events Conditions
12:54 AM 45.0 °F 43.0 °F 93% 30.09 in 4.0 mi Calm Calm - N/A   Clear
1:54 AM 44.1 °F 43.0 °F 96% 30.09 in 4.0 mi Calm Calm - N/A   Clear
2:54 AM 44.1 °F 42.1 °F 93% 30.09 in 5.0 mi Calm Calm - N/A   Clear
3:54 AM 43.0 °F 42.1 °F 97% 30.08 in 3.0 mi Calm Calm - N/A   Clear
4:54 AM 43.0 °F 42.1 °F 97% 30.08 in 4.0 mi Calm Calm - N/A   Clear
6:02 AM 42.8 °F 39.2 °F 87% 30.08 in 2.5 mi Calm Calm - N/A   Clear
6:10 AM 41.0 °F 39.2 °F 93% 30.08 in 6.0 mi Calm Calm - N/A   Clear
6:54 AM 41.0 °F 39.9 °F 96% 30.10 in 6.0 mi Calm Calm - N/A   Clear
7:54 AM 42.1 °F 41.0 °F 96% 30.13 in 4.0 mi Calm Calm - N/A   Clear
8:54 AM 50.0 °F 48.0 °F 93% 30.14 in 4.0 mi Calm Calm - N/A   Clear
9:54 AM 57.0 °F 51.1 °F 81% 30.15 in 9.0 mi NE 5.8 mph - N/A   Clear
10:54 AM 62.1 °F 50.0 °F 65% 30.14 in 10.0 mi NE 6.9 mph - N/A   Clear
11:54 AM 66.0 °F 46.0 °F 48% 30.14 in 10.0 mi ENE 6.9 mph - N/A   Clear
12:54 PM 68.0 °F 44.1 °F 42% 30.12 in 10.0 mi Variable 5.8 mph - N/A   Clear
1:54 PM 69.1 °F 45.0 °F 42% 30.10 in 10.0 mi Calm Calm - N/A   Clear
2:54 PM 72.0 °F 46.0 °F 40% 30.08 in 10.0 mi North 6.9 mph - N/A   Clear
3:54 PM 71.1 °F 45.0 °F 39% 30.06 in 10.0 mi NNE 6.9 mph - N/A   Clear
4:54 PM 70.0 °F 45.0 °F 41% 30.06 in 10.0 mi NNE 4.6 mph - N/A   Clear
5:54 PM 68.0 °F 46.0 °F 45% 30.06 in 10.0 mi NNE 6.9 mph - N/A   Clear
6:54 PM 57.0 °F 48.9 °F 74% 30.08 in 10.0 mi Calm Calm - N/A   Clear
7:54 PM 52.0 °F 48.9 °F 89% 30.09 in 10.0 mi Calm Calm - N/A   Clear
8:54 PM 52.0 °F 48.9 °F 89% 30.11 in 10.0 mi Calm Calm - N/A   Clear
9:54 PM 48.9 °F 46.9 °F 93% 30.11 in 10.0 mi Calm Calm - N/A   Clear
10:54 PM 48.0 °F 46.0 °F 93% 30.11 in 10.0 mi Calm Calm - N/A   Clear
11:54 PM 48.0 °F 46.0 °F 93% 30.11 in 10.0 mi Calm Calm - N/A   Clear